Wind_Speed
8 8 9 9 9 10 11 11 11 12 12 11 10 9 9 8 7 7 8 9 9 8 8 4 3 2 3 8 9 12 12 12 12 11 10 10 10 10 9 8 7 8 11
9 11 11 12 11 10 10 12 12 12 13 13 11 11 10 9 8 8 8 8 9 9 9 6 5 4 3 7 11 16 12 11 11 10 10 11 11 10 9 8 8 8 10
10 11 13 14 15 14 13 12 13 12 14 15 15 14 13 12 11 10 10 10 10 10 10 9 7 6 6 8 11 13 11 13 12 12 10 11 10 10 9 8 8 8 8
12 12 13 14 15 17 17 16 14 15 15 15 16 17 16 15 14 13 12 11 12 13 12 11 9 9 8 8 13 15 16 14 13 12 14 13 12 10 10 9 7 7 8
13 13 13 14 15 16 17 18 18 18 18 18 17 16 17 17 17 17 16 14 13 14 15 15 13 11 11 10 11 15 17 16 16 15 14 15 14 13 11 10 8 7 7
15 15 14 14 15 16 16 16 18 19 20 20 21 21 20 19 18 18 19 18 18 16 15 17 16 16 14 14 13 13 16 18 19 17 17 16 16 16 15 12 11 10 8
15 15 16 17 16 17 17 17 18 18 19 20 22 24 23 23 23 21 20 20 21 20 18 17 18 18 17 17 17 16 16 17 19 20 19 18 18 18 17 18 15 13 11
12 13 13 14 15 16 17 18 19 21 22 23 24 25 25 26 27 27 26 24 22 22 22 21 19 19 20 19 20 19 18 18 20 20 21 21 20 20 19 19 19 19 16
11 12 13 13 13 13 14 15 17 20 23 25 26 27 27 27 28 29 29 28 27 26 24 25 24 23 21 21 21 22 21 20 20 21 22 22 22 22 21 22 21 21 21
12 13 13 14 15 15 15 15 16 17 19 21 24 27 29 29 30 30 31 31 32 30 29 27 27 27 26 23 22 23 22 23 23 23 21 22 24 23 22 24 23 23 22
14 14 15 15 17 18 19 19 19 19 19 19 21 23 26 29 31 30 30 31 31 33 33 32 30 29 30 28 25 23 24 25 25 25 25 24 23 23 24 24 24 24 24
15 15 16 17 18 19 20 21 22 22 22 22 22 22 24 26 29 33 33 34 32 32 33 34 34 33 31 31 31 29 27 26 27 28 28 27 26 25 25 25 25 25 26
18 18 19 21 21 21 22 23 23 24 24 26 26 27 27 27 27 30 32 35 35 34 34 33 35 35 35 34 33 33 32 29 28 29 29 30 29 29 28 27 26 26 26
19 19 20 22 23 24 24 25 26 27 27 27 29 29 29 31 31 30 32 32 35 37 37 37 35 35 35 36 36 36 34 31 30 30 28 28 30 31 32 31 30 31 33
24 24 24 25 26 27 27 28 29 29 29 31 31 31 32 32 32 34 33 34 34 34 37 39 39 38 38 37 36 36 36 37 34 32 33 36 31 29 31 31 33 39 32
29 29 30 30 31 31 31 32 33 34 34 34 33 34 35 35 35 35 37 36 36 34 34 37 40 40 40 41 40 39 38 36 36 36 36 34 38 39 32 29 31 32 33
32 33 34 35 36 37 37 37 36 37 37 38 38 37 37 36 38 39 38 39 39 38 38 38 38 38 39 40 40 41 42 40 38 38 37 36 36 35 33 33 36 37 36
37 37 38 39 40 41 41 42 43 42 41 41 41 41 41 40 40 40 41 40 39 39 40 40 41 41 40 39 38 37 38 39 40 38 39 39 36 34 33 36 38 39 38
43 43 44 44 45 46 47 47 47 48 48 47 45 45 45 44 44 44 45 44 45 44 42 42 41 41 42 43 43 41 39 37 37 35 34 33 35 37 36 36 36 36 36
48 49 51 51 51 52 53 53 54 54 53 53 52 51 49 49 48 48 49 49 49 51 50 48 46 43 44 42 40 39 40 41 40 37 35 33 33 34 35 35 35 35 35
53 54 56 56 57 58 57 58 58 59 59 59 58 58 56 55 55 53 51 53 54 54 55 56 54 52 51 49 47 45 43 42 41 40 39 37 35 34 34 36 36 36 36
58 59 60 61 61 61 62 62 62 62 63 63 64 64 63 63 61 61 60 58 57 58 59 58 60 60 58 58 56 54 51 48 46 44 42 40 38 38 37 37 36 34 36
60 61 62 63 64 65 65 66 67 68 68 67 68 68 68 68 68 67 66 66 65 63 63 64 63 62 64 64 63 62 60 56 55 52 49 47 45 43 42 41 40 38 35
64 65 66 66 67 67 68 70 71 71 71 72 71 71 72 73 72 71 70 69 69 70 69 68 69 68 67 66 67 68 67 64 63 60 58 56 54 50 46 45 42 40 39
65 66 68 68 69 69 69 70 72 74 75 75 75 75 75 76 77 76 76 75 73 72 73 73 72 72 74 73 71 71 72 71 68 66 64 61 60 57 54 49 47 47 45
62 63 64 65 66 67 68 70 71 73 74 75 77 77 77 77 78 80 81 81 80 79 77 77 76 75 75 75 77 76 74 74 73 72 69 67 65 62 59 56 52 49 48
Wind_Direction
223 223 221 219 208 207 208 214 215 218 221 220 224 225 229 228 228 223 222 224 222 215 215 218 222 216 149 135 154 148 158 165 156 159 155 149 148 147 147 142 137 143 143
233 235 230 232 230 224 218 216 222 224 226 231 233 231 231 234 238 236 230 229 236 230 215 222 216 215 191 161 158 166 177 170 168 170 160 153 152 149 149 147 142 148 154
234 235 231 230 232 232 227 224 222 225 228 230 232 233 236 238 239 240 241 235 231 231 224 225 218 215 216 181 178 180 184 182 176 182 180 168 162 160 156 146 141 144 151
234 233 232 231 232 235 237 238 232 231 232 235 237 239 241 243 245 244 245 243 240 235 230 233 231 224 220 208 193 193 190 193 193 193 192 191 183 175 172 162 157 151 150
239 236 234 234 236 236 238 241 242 239 238 238 241 243 244 245 246 248 249 250 250 244 239 234 230 229 228 222 210 203 198 197 202 202 205 203 200 201 192 188 182 171 164
247 245 245 245 247 249 247 247 248 250 248 246 247 245 246 248 248 246 246 247 250 251 245 241 238 230 227 229 229 217 210 206 206 207 208 213 213 212 214 207 203 200 193
278 277 273 271 268 266 265 264 263 261 260 257 253 251 249 250 252 251 248 246 244 246 247 245 243 239 230 225 228 229 225 219 217 215 213 214 220 219 220 221 219 217 211
281 282 281 280 277 274 272 269 267 265 263 259 257 256 254 253 254 254 252 250 248 246 245 246 246 246 240 231 227 227 228 226 227 228 226 222 221 225 225 227 226 227 222
292 289 289 289 288 285 285 285 282 276 270 268 267 263 260 257 254 253 251 251 251 249 248 245 246 245 244 241 233 228 229 231 230 231 232 234 232 225 227 229 227 228 229
287 287 285 286 286 286 283 280 279 280 281 279 274 270 267 263 261 259 254 249 246 247 248 247 246 246 245 242 239 235 232 230 232 232 234 234 236 237 231 230 232 232 232
278 278 276 277 278 280 281 280 279 279 277 277 276 276 275 270 266 263 260 258 255 249 246 246 245 245 244 243 240 240 236 235 234 233 232 233 235 236 240 237 236 237 237
276 274 272 271 270 272 272 272 271 271 272 272 269 269 271 272 271 266 262 261 257 254 252 249 247 245 245 242 240 240 242 239 237 236 235 235 234 234 235 240 241 242 243
274 273 274 273 272 271 270 270 271 269 268 266 266 267 268 268 270 269 266 262 259 256 254 252 250 247 245 243 241 240 240 239 240 240 239 238 238 238 237 238 241 245 245
276 276 275 273 271 270 269 270 271 273 271 270 269 267 265 266 266 265 267 265 261 257 255 254 253 251 248 247 246 243 242 241 239 241 240 243 242 242 240 242 242 254 236
271 273 273 274 274 272 272 271 269 268 267 268 269 270 271 268 265 264 261 263 262 259 255 253 252 252 253 250 249 248 244 243 242 238 239 245 246 248 245 241 240 243 253
269 268 268 268 268 267 267 268 270 270 270 268 267 268 270 271 269 265 263 258 258 257 256 253 250 250 251 252 251 251 250 246 244 243 243 242 245 249 242 248 250 249 249
269 270 269 269 270 271 271 269 267 266 267 269 269 268 266 266 267 267 262 260 255 251 250 250 249 247 246 247 251 251 252 251 247 247 245 244 247 249 251 248 253 253 250
271 269 268 268 269 269 268 268 269 267 266 266 267 266 266 265 262 260 263 260 253 254 251 248 248 249 245 242 243 245 247 248 249 248 248 245 245 246 246 245 246 253 257
274 273 272 270 269 269 269 269 268 268 268 267 265 265 265 264 263 262 258 257 256 253 252 251 245 243 244 245 243 240 240 240 242 244 244 245 244 243 244 244 246 249 252
272 272 272 271 271 270 269 268 269 269 269 268 267 265 264 264 262 261 261 259 254 255 253 248 245 242 240 235 236 239 238 237 237 237 240 242 244 245 243 243 245 246 250
272 271 271 271 271 271 269 268 268 268 269 268 267 266 264 263 263 262 258 259 259 256 253 253 251 244 239 238 239 238 236 240 240 237 237 238 239 241 243 245 247 248 248
275 275 274 274 274 273 273 272 271 270 268 268 267 266 264 263 261 260 261 259 256 257 257 254 251 251 246 243 240 239 241 241 239 239 240 242 244 245 243 244 245 248 249
277 276 276 275 274 273 272 271 271 270 270 268 267 266 264 263 261 259 258 258 259 256 255 255 254 251 249 249 247 244 240 240 240 241 241 244 250 252 249 246 246 247 248
277 276 276 275 274 273 272 271 270 269 268 267 264 264 265 264 262 261 259 257 256 257 257 255 253 253 251 249 249 248 245 243 241 239 240 244 249 251 252 249 247 247 247
277 277 277 276 275 273 271 270 268 267 267 264 264 263 262 262 263 263 262 260 258 255 255 256 256 254 252 250 248 247 247 247 245 242 240 239 242 246 251 250 249 250 250
281 278 277 277 276 276 275 273 271 269 268 267 267 265 263 262 262 263 263 263 262 259 256 254 254 254 253 252 251 249 248 247 247 245 243 241 241 241 245 249 250 249 249
Height
5845 5846 5846 5846 5847 5846 5846 5847 5847 5847 5848 5849 5849 5850 5850 5851 5851 5851 5852 5852 5852 5853 5853 5853 5853 5853 5853 5853 5853 5854 5856 5858 5859 5860 5862 5863 5864 5865 5866 5866 5867 5867 5868
5844 5844 5846 5846 5846 5846 5847 5846 5847 5847 5847 5847 5847 5848 5849 5850 5850 5850 5851 5851 5851 5852 5853 5853 5853 5853 5853 5854 5855 5856 5857 5858 5859 5861 5862 5863 5865 5866 5866 5867 5868 5869 5869
5843 5842 5843 5844 5844 5844 5845 5844 5845 5845 5846 5846 5847 5847 5848 5848 5849 5850 5850 5851 5851 5851 5852 5853 5853 5853 5853 5855 5855 5856 5857 5858 5859 5861 5863 5864 5865 5866 5867 5867 5868 5869 5870
5840 5841 5841 5842 5842 5843 5844 5843 5844 5844 5845 5845 5846 5846 5847 5848 5848 5849 5850 5850 5850 5851 5851 5852 5853 5853 5853 5854 5856 5856 5857 5858 5859 5860 5862 5864 5865 5866 5867 5868 5869 5870 5870
5840 5841 5840 5840 5841 5841 5841 5841 5842 5843 5843 5843 5844 5844 5845 5846 5847 5848 5848 5848 5849 5850 5850 5850 5851 5852 5853 5853 5855 5856 5856 5857 5858 5860 5861 5862 5864 5865 5867 5868 5869 5870 5870
5839 5839 5840 5840 5840 5840 5840 5840 5841 5841 5842 5843 5843 5843 5844 5844 5844 5845 5846 5846 5847 5848 5848 5848 5849 5850 5851 5852 5853 5854 5856 5856 5857 5858 5859 5861 5863 5864 5866 5867 5868 5869 5870
5839 5839 5840 5840 5840 5840 5840 5840 5841 5841 5841 5841 5842 5842 5842 5842 5843 5843 5843 5844 5845 5845 5845 5846 5846 5848 5849 5850 5851 5852 5853 5855 5856 5856 5857 5859 5860 5862 5863 5865 5866 5867 5868
5837 5837 5838 5838 5839 5839 5839 5839 5839 5838 5838 5838 5838 5839 5840 5840 5841 5841 5841 5841 5842 5842 5843 5843 5844 5845 5846 5847 5848 5849 5851 5852 5853 5855 5856 5856 5857 5859 5860 5862 5864 5865 5866
5836 5836 5835 5836 5835 5835 5835 5835 5835 5835 5836 5836 5837 5837 5836 5836 5836 5837 5838 5839 5839 5839 5840 5840 5840 5841 5842 5843 5845 5846 5847 5849 5850 5851 5853 5854 5855 5856 5858 5859 5861 5862 5864
5834 5833 5833 5833 5832 5832 5832 5831 5831 5832 5832 5832 5832 5833 5833 5833 5834 5834 5833 5834 5834 5835 5836 5836 5836 5837 5838 5839 5841 5842 5843 5845 5846 5848 5849 5851 5852 5854 5855 5856 5857 5859 5860
5832 5831 5830 5829 5829 5829 5829 5828 5828 5827 5827 5828 5828 5827 5827 5828 5828 5828 5830 5830 5831 5831 5830 5831 5832 5833 5833 5835 5837 5838 5839 5840 5842 5843 5845 5846 5848 5850 5852 5853 5854 5855 5857
5829 5828 5828 5826 5825 5825 5824 5824 5824 5823 5823 5823 5823 5822 5822 5822 5823 5823 5824 5824 5825 5826 5827 5827 5827 5828 5828 5830 5831 5833 5834 5835 5837 5838 5840 5841 5843 5844 5846 5848 5851 5852 5853
5825 5825 5824 5824 5823 5822 5820 5819 5819 5818 5818 5817 5817 5817 5816 5816 5817 5817 5817 5818 5819 5820 5821 5822 5822 5822 5822 5823 5824 5826 5827 5829 5831 5832 5834 5836 5837 5839 5841 5843 5845 5847 5848
5821 5820 5819 5818 5818 5817 5816 5815 5814 5813 5812 5812 5812 5811 5811 5810 5810 5810 5810 5811 5812 5813 5814 5815 5816 5817 5817 5818 5818 5819 5821 5822 5824 5826 5828 5830 5832 5834 5836 5838 5840 5839 5841
5815 5814 5814 5813 5812 5811 5810 5809 5808 5807 5806 5805 5805 5805 5804 5804 5803 5803 5803 5804 5804 5805 5806 5807 5808 5810 5812 5812 5812 5812 5814 5816 5817 5819 5821 5823 5825 5827 5830 5832 5834 5832 5834
5809 5808 5807 5806 5805 5803 5802 5801 5801 5800 5800 5799 5798 5797 5797 5796 5796 5796 5795 5795 5796 5797 5797 5798 5799 5800 5802 5804 5806 5806 5807 5809 5810 5812 5814 5815 5817 5821 5823 5826 5828 5829 5830
5802 5801 5799 5798 5797 5796 5794 5793 5792 5791 5790 5790 5790 5790 5789 5789 5788 5788 5787 5787 5787 5788 5788 5789 5790 5791 5793 5794 5797 5799 5800 5801 5803 5805 5806 5808 5810 5812 5815 5818 5820 5822 5823
5794 5792 5790 5789 5788 5786 5785 5784 5783 5782 5780 5780 5780 5780 5779 5779 5779 5778 5779 5779 5779 5780 5780 5780 5782 5783 5784 5785 5787 5789 5791 5793 5795 5797 5798 5800 5802 5804 5807 5810 5811 5813 5815
5785 5783 5781 5779 5777 5775 5774 5772 5771 5770 5770 5769 5768 5769 5769 5769 5769 5769 5769 5770 5771 5770 5771 5772 5772 5774 5775 5777 5778 5779 5782 5784 5786 5787 5789 5791 5793 5795 5798 5800 5802 5804 5807
5773 5771 5769 5768 5766 5763 5761 5760 5758 5758 5757 5757 5757 5756 5756 5756 5757 5757 5758 5758 5759 5761 5761 5762 5763 5765 5766 5767 5769 5772 5773 5774 5776 5778 5781 5782 5784 5787 5789 5791 5793 5795 5797
5760 5758 5756 5754 5752 5751 5748 5746 5744 5743 5743 5742 5742 5742 5743 5742 5742 5743 5744 5745 5746 5748 5749 5750 5752 5753 5756 5757 5760 5761 5762 5766 5769 5770 5772 5773 5775 5777 5779 5782 5784 5786 5788
5748 5745 5743 5740 5738 5735 5734 5731 5729 5727 5726 5725 5725 5725 5725 5726 5727 5727 5728 5729 5731 5733 5734 5735 5737 5740 5743 5744 5747 5750 5753 5756 5757 5760 5762 5765 5767 5768 5771 5772 5774 5777 5779
5732 5729 5727 5724 5722 5719 5717 5715 5712 5710 5709 5707 5706 5707 5707 5707 5708 5710 5711 5712 5713 5716 5719 5720 5722 5724 5728 5731 5733 5736 5740 5743 5745 5748 5751 5753 5756 5759 5762 5763 5764 5767 5769
5716 5713 5710 5707 5705 5702 5700 5697 5695 5692 5690 5688 5688 5687 5687 5686 5687 5688 5690 5692 5695 5697 5699 5702 5705 5708 5710 5714 5716 5721 5724 5728 5732 5736 5739 5741 5745 5747 5750 5753 5756 5758 5760
5701 5697 5694 5690 5686 5683 5680 5678 5676 5673 5670 5669 5667 5666 5666 5666 5665 5665 5667 5669 5672 5675 5678 5681 5685 5689 5692 5696 5699 5702 5706 5711 5716 5721 5725 5728 5730 5735 5738 5741 5745 5747 5750
5682 5679 5676 5672 5668 5665 5661 5658 5655 5653 5651 5650 5647 5645 5644 5645 5645 5644 5643 5644 5647 5650 5654 5658 5663 5667 5671 5676 5680 5685 5689 5693 5698 5703 5709 5714 5717 5720 5725 5729 5733 5736 5739